カタログに戻る

COSMOS 1261 DEB

LostHEO
NORAD 12892·DEBRIS·🇷🇺 Russia

打ち上げ Mar 31, 1981 から Plesetsk Cosmodrome

Loading…

次のパス (今後24時間)

TLE

古いSource: Space-Track

元期: Aug 6, 2026, 01:13 UTC

1 12892U 81031E   26218.05071072  .04794858  13496-6  36305-2 0  9999
2 12892  62.0873  73.4696 6392665  48.9363 350.9703  3.58962729260685

AllMySatでCOSMOS 1261 DEBをリアルタイム追跡

Download on the App Store